Regional Weather Roundup
Issued by NWS

Home | Current Version | Previous Version | Graphics & Text | Print | Product List | Glossary On
Versions: 1 2 3 4 5 6 7 8 9 10 11 12 13 14 15 16 17 18 19 20 21 22 23 24 25 26 27 28
000
ASUS45 KCYS 250310
RWRWY

WYOMING REGIONAL WEATHER ROUNDUP
NATIONAL WEATHER SERVICE CHEYENNE WY
900 PM MDT SUN JUL 24 2016

NOTE:  "FAIR" INDICATES FEW OR NO CLOUDS BELOW 12,000 FEET
WITH NO SIGNIFICANT WEATHER AND/OR OBSTRUCTIONS TO VISIBILITY.

WYZ001-250400-
YELLOWSTONE NATIONAL PARK

CITY           SKY/WX    TMP DP  RH WIND       PRES   REMARKS
LK YELLOWSTONE   N/A     59  29  31 NW5       30.36S
W YELLOWSTONE  NOT AVBL

$$
WYZ002>013-054>058-071-098>099-250400-
NORTHERN WYOMING

CITY           SKY/WX    TMP DP  RH WIND       PRES   REMARKS
JACKSON        NOT AVBL
CODY           FAIR      81  34  18 E6        30.12R
GREYBULL       FAIR      87  29  12 CALM      30.00S
WORLAND        FAIR      75  33  21 E8        30.02S
SHERIDAN       FAIR      71  51  49 SW3       30.05R
BUFFALO        FAIR      78  38  23 E3        30.14R
GILLETTE       FAIR      67  40  37 CALM      30.09R
HULETT         FAIR      73  46  38 SE8       30.12S
NEWCASTLE      FAIR      77  37  24 SE10G20   30.12S

$$
WYZ014>020-022>026-101>103-250400-
CENTRAL WYOMING

CITY           SKY/WX    TMP DP  RH WIND       PRES   REMARKS
BIG PINEY      FAIR      68  24  19 N9        30.26R
PINEDALE       FAIR      66  32  28 NW5       30.27S
DUBOIS         FAIR      68  19  15 W6        30.26R
LANDER         FAIR      76  35  22 SW6       30.13R
RIVERTON       FAIR      80  26  13 NE6       30.12S
CASPER         FAIR      78  30  17 E8        30.13S
DOUGLAS          N/A    N/A N/A N/A MISG      30.14R

$$
WYZ021-027>030-104>119-250400-
SOUTHERN WYOMING

CITY           SKY/WX    TMP DP  RH WIND       PRES   REMARKS
EVANSTON       FAIR      73  18  12 NW8       30.27S
KEMMERER         N/A    N/A N/A N/A NW9       30.30R
FORT BRIDGER   FAIR      73  18  12 NW5       30.30R
ROCK SPRINGS   FAIR      75   9   8 W10       30.23R
DIXON          FAIR      69  37  31 NE7       30.23R
RAWLINS        FAIR      73  14  10 NW10      30.24R
SARATOGA       FAIR      68  28  22 W8        30.26R
LARAMIE        FAIR      63  53  70 SE25G37   30.30R
CHEYENNE       FAIR      61  54  77 S9        30.29R
TORRINGTON     FAIR      73  52  47 SE15      30.13R
PINE BLUFFS    FAIR      63  52  67 S9G17     30.22R

$$




USA.gov is the U.S. government's official web portal to all federal, state and local government web resources and services.